Torna al catalogo

STARLINK-30101

AttivoComunicazioniVLEO
NORAD 56301·PAYLOAD·🇺🇸 United States

Lanciato Apr 19, 2023 da Cape Canaveral Space Force Station

Loading…

Prossimi Passaggi (prossime 24 ore)

TLE

AggiornatoSource: CelesTrak SupGP

Epoca: Sep 14, 2026, 21:54 UTC

1 56301C 23056R   26257.91298611  .00019422  00000+0  77773-3 0  2578
2 56301  43.0000 218.3704 0001154 247.5065  31.0778 15.24245916    15

Traccia STARLINK-30101 in tempo reale con AllMySat

Download on the App Store